| time (UTC) | temp F | wind direction | speed knots | gust knots | rain 1hr in | rain 24hr in | rain mn in | humidity % | barometer mb |
| 20260906175352 | 80 | 166 | 7.0 | 10.4 | 0.00 | 0.00 | 0.00 | 56 | 1021.3 |
| 20260906174851 | 81 | 164 | 2.6 | 7.0 | 0.00 | 0.00 | 0.00 | 56 | 1021.1 |
| 20260906174350 | 79 | 159 | 10.4 | 13.0 | 0.00 | 0.00 | 0.00 | 58 | 1021.1 |
| 20260906173845 | 79 | 157 | 6.1 | 13.0 | 0.00 | 0.00 | 0.00 | 58 | 1021.1 |
| 20260906173341 | 79 | 185 | 4.3 | 11.3 | 0.00 | 0.00 | 0.00 | 57 | 1021.0 |
| 20260906172840 | 80 | 151 | 4.3 | 12.2 | 0.00 | 0.00 | 0.00 | 58 | 1021.0 |
| 20260906172337 | 80 | 132 | 12.2 | 12.2 | 0.00 | 0.00 | 0.00 | 56 | 1020.9 |
| 20260906171832 | 79 | 160 | 7.0 | 10.4 | 0.00 | 0.00 | 0.00 | 59 | 1021.4 |
| 20260906171326 | 79 | 147 | 7.0 | 14.8 | 0.00 | 0.00 | 0.00 | 58 | 1021.3 |
| 20260906170822 | 80 | 110 | 4.3 | 9.6 | 0.00 | 0.00 | 0.00 | 54 | 1021.2 |
| 20260906170318 | 80 | 155 | 2.6 | 5.2 | 0.00 | 0.00 | 0.00 | 61 | 1021.0 |
| 20260906165814 | 80 | 161 | 6.1 | 9.6 | 0.00 | 0.00 | 0.00 | 59 | 1021.4 |
| 20260906165314 | 80 | 160 | 4.3 | 4.3 | 0.00 | 0.00 | 0.00 | 62 | 1021.5 |
| 20260906164814 | 78 | 166 | 3.5 | 7.0 | 0.00 | 0.00 | 0.00 | 62 | 1021.4 |
| 20260906164308 | 77 | 146 | 3.5 | 11.3 | 0.00 | 0.00 | 0.00 | 65 | 1021.3 |
| 20260906163804 | 77 | 147 | 2.6 | 5.2 | 0.00 | 0.00 | 0.00 | 69 | 1021.4 |
| 20260906163300 | 77 | 144 | 4.3 | 5.2 | 0.00 | 0.00 | 0.00 | 69 | 1021.3 |
| 20260906162758 | 77 | 139 | 1.7 | 8.7 | 0.00 | 0.00 | 0.00 | 69 | 1022.0 |
| 20260906162256 | 77 | 148 | 5.2 | 7.0 | 0.00 | 0.00 | 0.00 | 71 | 1021.7 |
| 20260906161757 | 77 | 152 | 5.2 | 7.0 | 0.00 | 0.00 | 0.00 | 69 | 1021.9 |
| 20260906161256 | 76 | 138 | 4.3 | 7.0 | 0.00 | 0.00 | 0.00 | 72 | 1021.9 |
| 20260906160755 | 77 | 100 | 7.8 | 7.8 | 0.00 | 0.00 | 0.00 | 74 | 1021.7 |
| 20260906160249 | 76 | 117 | 4.3 | 9.6 | 0.00 | 0.00 | 0.00 | 75 | 1021.6 |
| 20260906155747 | 77 | 180 | 3.5 | 7.8 | 0.00 | 0.00 | 0.00 | 75 | 1022.0 |
| 20260906155242 | 76 | 222 | 2.6 | 7.8 | 0.00 | 0.00 | 0.00 | 75 | 1021.9 |
| 20260906154737 | 76 | 138 | 0.0 | 6.1 | 0.00 | 0.00 | 0.00 | 76 | 1022.0 |
| 20260906154232 | 75 | 161 | 3.5 | 7.8 | 0.00 | 0.00 | 0.00 | 78 | 1021.7 |
| 20260906153731 | 74 | 148 | 8.7 | 10.4 | 0.00 | 0.00 | 0.00 | 79 | 1021.5 |
| 20260906153225 | 74 | 153 | 6.1 | 8.7 | 0.00 | 0.00 | 0.00 | 78 | 1021.5 |
| 20260906152721 | 74 | 157 | 5.2 | 7.0 | 0.00 | 0.00 | 0.00 | 80 | 1021.5 |
| 20260906152215 | 74 | 155 | 9.6 | 9.6 | 0.00 | 0.00 | 0.00 | 80 | 1021.4 |
| 20260906151709 | 73 | 144 | 4.3 | 11.3 | 0.00 | 0.00 | 0.00 | 81 | 1021.5 |
| 20260906151205 | 74 | 151 | 7.8 | 9.6 | 0.00 | 0.00 | 0.00 | 82 | 1021.6 |
| 20260906150701 | 73 | 158 | 4.3 | 6.1 | 0.00 | 0.00 | 0.00 | 82 | 1021.6 |
| 20260906150156 | 72 | 161 | 6.1 | 10.4 | 0.00 | 0.00 | 0.00 | 84 | 1021.7 |
| 20260906145654 | 0 | 156 | 7.8 | 9.6 | 0.00 | 0.00 | 0.00 | 84 | 1021.6 |
| 20260906145149 | 72 | 147 | 3.5 | 7.8 | 0.00 | 0.00 | 0.00 | 84 | 1021.5 |
| 20260906144648 | 72 | 155 | 6.1 | 9.6 | 0.00 | 0.00 | 0.00 | 84 | 1021.6 |
| 20260906144143 | 71 | 155 | 4.3 | 10.4 | 0.00 | 0.00 | 0.00 | 84 | 1021.6 |
| 20260906143643 | 72 | 158 | 6.1 | 7.8 | 0.00 | 0.00 | 0.00 | 84 | 1021.6 |
| 20260906143141 | 72 | 155 | 5.2 | 7.0 | 0.00 | 0.00 | 0.00 | 85 | 1021.6 |
| 20260906142639 | 71 | 157 | 3.5 | 6.1 | 0.00 | 0.00 | 0.00 | 86 | 1021.6 |
| 20260906142135 | 71 | 168 | 2.6 | 6.1 | 0.00 | 0.00 | 0.00 | 87 | 1021.5 |
| 20260906141633 | 70 | 158 | 8.7 | 8.7 | 0.00 | 0.00 | 0.00 | 88 | 1021.4 |
| 20260906141129 | 0 | 160 | 6.1 | 7.0 | 0.00 | 0.00 | 0.00 | 88 | 1021.3 |
| 20260906140628 | 0 | 221 | 5.2 | 6.1 | 0.00 | 0.00 | 0.00 | 91 | 1021.5 |
| 20260906140123 | 70 | 169 | 3.5 | 4.3 | 0.00 | 0.00 | 0.00 | 94 | 1021.5 |
| 20260906135620 | 69 | 158 | 7.0 | 7.8 | 0.00 | 0.00 | 0.00 | 94 | 1021.9 |
| 20260906135116 | 69 | 219 | 0.0 | 5.2 | 0.00 | 0.00 | 0.00 | 95 | 1021.5 |
| 20260906134612 | 0 | 200 | 1.7 | 7.0 | 0.00 | 0.00 | 0.00 | 97 | 1021.6 |
| 20260906134107 | 0 | 187 | 3.5 | 8.7 | 0.00 | 0.00 | 0.00 | 97 | 1021.5 |
| 20260906133603 | 0 | 160 | 5.2 | 6.1 | 0.00 | 0.00 | 0.00 | 97 | 1021.5 |
| 20260906133057 | 68 | 165 | 3.5 | 11.3 | 0.00 | 0.00 | 0.00 | 96 | 1021.5 |
| 20260906132552 | 68 | 158 | 7.8 | 8.7 | 0.00 | 0.00 | 0.00 | 96 | 1021.2 |
| 20260906132048 | 0 | 180 | 2.6 | 5.2 | 0.00 | 0.00 | 0.00 | 95 | 1021.3 |
| 20260906131543 | 69 | 167 | 1.7 | 4.3 | 0.00 | 0.00 | 0.00 | 95 | 1021.3 |
| 20260906131038 | 0 | 159 | 4.3 | 6.1 | 0.00 | 0.00 | 0.00 | 97 | 1020.9 |
| 20260906130538 | 0 | 116 | 2.6 | 5.2 | 0.00 | 0.00 | 0.00 | 98 | 1020.7 |
| 20260906130033 | 0 | 275 | 0.9 | 4.3 | 0.00 | 0.00 | 0.00 | 99 | 1020.9 |
| 20260906125531 | 0 | 125 | 2.6 | 2.6 | 0.00 | 0.00 | 0.00 | 99 | 1021.0 |
| 20260906125031 | 0 | 174 | 1.7 | 1.7 | 0.00 | 0.00 | 0.00 | 99 | 1020.8 |
| 20260906124526 | 0 | 151 | 2.6 | 3.5 | 0.00 | 0.00 | 0.00 | 99 | 1021.0 |
| 20260906124021 | 0 | 131 | 2.6 | 4.3 | 0.00 | 0.00 | 0.00 | 99 | 1021.1 |
| 20260906123520 | 66 | 132 | 0.0 | 2.6 | 0.00 | 0.00 | 0.00 | 99 | 1020.9 |
| 20260906123015 | 0 | 129 | 2.6 | 3.5 | 0.00 | 0.00 | 0.00 | 99 | 1020.7 |
| 20260906122509 | 0 | 133 | 1.7 | 2.6 | 0.00 | 0.00 | 0.00 | 99 | 1020.7 |
| 20260906122006 | 0 | 171 | 0.0 | 2.6 | 0.00 | 0.00 | 0.00 | 99 | 1020.6 |
| 20260906121502 | 0 | 172 | 1.7 | 3.5 | 0.00 | 0.00 | 0.00 | 99 | 1020.7 |
| 20260906120958 | 0 | 166 | 2.6 | 4.3 | 0.00 | 0.00 | 0.00 | 99 | 1020.6 |
| 20260906120453 | 0 | 188 | 2.6 | 3.5 | 0.00 | 0.00 | 0.00 | 99 | 1020.5 |
| 20260906115949 | 0 | 110 | 1.7 | 3.5 | 0.00 | 0.00 | 0.00 | 99 | 1020.6 |
| 20260906115444 | 0 | 135 | 3.5 | 4.3 | 0.00 | 0.00 | 0.00 | 99 | 1020.6 |
| 20260906114944 | 0 | 110 | 1.7 | 3.5 | 0.00 | 0.00 | 0.00 | 99 | 1020.6 |
| 20260906114438 | 0 | 139 | 2.6 | 2.6 | 0.00 | 0.00 | 0.00 | 99 | 1020.6 |
| 20260906113935 | 0 | 133 | 1.7 | 2.6 | 0.00 | 0.00 | 0.00 | 99 | 1020.5 |
| 20260906113433 | 0 | 146 | 0.0 | 2.6 | 0.00 | 0.00 | 0.00 | 99 | 1020.6 |
| 20260906112929 | 0 | 89 | 3.5 | 4.3 | 0.00 | 0.00 | 0.00 | 99 | 1020.6 |
| 20260906112424 | 0 | 135 | 1.7 | 6.1 | 0.00 | 0.00 | 0.00 | 99 | 1020.7 |
| 20260906111920 | 0 | 89 | 2.6 | 3.5 | 0.00 | 0.00 | 0.00 | 99 | 1020.4 |
| 20260906111419 | 0 | 73 | 1.7 | 3.5 | 0.00 | 0.00 | 0.00 | 99 | 1020.4 |
| 20260906110914 | 0 | 25 | 1.7 | 3.5 | 0.00 | 0.00 | 0.00 | 99 | 1020.5 |
| 20260906110409 | 0 | 129 | 2.6 | 2.6 | 0.00 | 0.00 | 0.00 | 99 | 1020.5 |
| 20260906105909 | 0 | 106 | 1.7 | 3.5 | 0.00 | 0.00 | 0.00 | 99 | 1020.3 |
| 20260906105404 | 67 | 49 | 3.5 | 3.5 | 0.00 | 0.00 | 0.00 | 99 | 1020.6 |
| 20260906104900 | 0 | 95 | 1.7 | 2.6 | 0.00 | 0.00 | 0.00 | 99 | 1020.6 |
| 20260906104358 | 0 | 110 | 0.9 | 2.6 | 0.00 | 0.00 | 0.00 | 99 | 1020.6 |
| 20260906103857 | 67 | 126 | 2.6 | 3.5 | 0.00 | 0.00 | 0.00 | 99 | 1020.5 |
| 20260906103356 | 67 | 139 | 2.6 | 3.5 | 0.00 | 0.00 | 0.00 | 99 | 1020.2 |
| 20260906102852 | 67 | 110 | 1.7 | 2.6 | 0.00 | 0.00 | 0.00 | 99 | 1020.1 |
| 20260906102351 | 0 | 136 | 2.6 | 4.3 | 0.00 | 0.00 | 0.00 | 99 | 1020.0 |
| 20260906101846 | 66 | 172 | 1.7 | 5.2 | 0.00 | 0.00 | 0.00 | 99 | 1020.1 |
| 20260906101341 | 66 | 143 | 2.6 | 3.5 | 0.00 | 0.00 | 0.00 | 99 | 1019.9 |
| 20260906100837 | 0 | 142 | 2.6 | 4.3 | 0.00 | 0.00 | 0.00 | 98 | 1020.1 |
| 20260906100336 | 66 | 116 | 2.6 | 2.6 | 0.00 | 0.00 | 0.00 | 98 | 1019.9 |
| 20260906095831 | 0 | 160 | 1.7 | 2.6 | 0.00 | 0.00 | 0.00 | 98 | 1019.8 |
| 20260906095327 | 0 | 148 | 1.7 | 1.7 | 0.00 | 0.00 | 0.00 | 98 | 1019.8 |
| 20260906094826 | 67 | 140 | 0.0 | 1.7 | 0.00 | 0.00 | 0.00 | 98 | 1019.6 |
| 20260906094321 | 67 | 177 | 0.0 | 2.6 | 0.00 | 0.00 | 0.00 | 98 | 1019.8 |
| 20260906093817 | 67 | 151 | 1.7 | 1.7 | 0.00 | 0.00 | 0.00 | 98 | 1019.9 |
| 20260906093312 | 67 | 171 | 1.7 | 1.7 | 0.00 | 0.00 | 0.00 | 98 | 1019.7 |
| 20260906092802 | 0 | 185 | 0.9 | 2.6 | 0.00 | 0.00 | 0.00 | 97 | 1019.9 |
| 20260906092305 | 67 | 99 | 0.0 | 1.7 | 0.00 | 0.00 | 0.00 | 97 | 1019.8 |
| 20260906091758 | 0 | 140 | 0.0 | 1.7 | 0.00 | 0.00 | 0.00 | 97 | 1019.7 |
| 20260906091254 | 0 | 177 | 0.0 | 0.9 | 0.00 | 0.00 | 0.00 | 97 | 1019.7 |
| 20260906090750 | 0 | 146 | 0.0 | 1.7 | 0.00 | 0.00 | 0.00 | 97 | 1019.6 |
| 20260906090249 | 0 | 86 | 0.9 | 2.6 | 0.00 | 0.00 | 0.00 | 97 | 1019.6 |
| 20260906085748 | 0 | 132 | 4.3 | 4.3 | 0.00 | 0.00 | 0.00 | 97 | 1019.8 |
| 20260906085247 | 67 | 153 | 2.6 | 3.5 | 0.00 | 0.00 | 0.00 | 97 | 1019.5 |
| 20260906084743 | 0 | 183 | 2.6 | 4.3 | 0.00 | 0.00 | 0.00 | 97 | 1019.3 |
| 20260906084242 | 68 | 167 | 3.5 | 7.8 | 0.00 | 0.00 | 0.00 | 97 | 1019.3 |
| 20260906083737 | 0 | 146 | 3.5 | 6.1 | 0.00 | 0.00 | 0.00 | 97 | 1019.3 |
| 20260906083233 | 0 | 136 | 3.5 | 3.5 | 0.00 | 0.00 | 0.00 | 97 | 1019.3 |
| 20260906082728 | 0 | 189 | 1.7 | 3.5 | 0.00 | 0.00 | 0.00 | 97 | 1019.4 |
| 20260906082223 | 0 | 146 | 2.6 | 3.5 | 0.00 | 0.00 | 0.00 | 97 | 1019.6 |
| 20260906081719 | 0 | 168 | 1.7 | 2.6 | 0.00 | 0.00 | 0.00 | 97 | 1019.7 |
| 20260906081213 | 68 | 166 | 3.5 | 4.3 | 0.00 | 0.00 | 0.00 | 97 | 1019.7 |
| 20260906080710 | 0 | 166 | 2.6 | 4.3 | 0.00 | 0.00 | 0.00 | 97 | 1019.5 |
| 20260906080205 | 0 | 168 | 1.7 | 3.5 | 0.00 | 0.00 | 0.00 | 97 | 1019.5 |
| 20260906075700 | 68 | 136 | 2.6 | 3.5 | 0.00 | 0.00 | 0.00 | 97 | 1019.7 |
| 20260906075154 | 68 | 139 | 2.6 | 3.5 | 0.00 | 0.00 | 0.00 | 97 | 1019.8 |
| 20260906074650 | 0 | 137 | 2.6 | 4.3 | 0.00 | 0.00 | 0.00 | 97 | 1019.6 |
| 20260906074149 | 0 | 139 | 3.5 | 5.2 | 0.00 | 0.00 | 0.00 | 96 | 1019.9 |
| 20260906073644 | 0 | 163 | 4.3 | 6.1 | 0.00 | 0.00 | 0.00 | 96 | 1019.8 |
| 20260906073139 | 0 | 114 | 4.3 | 5.2 | 0.00 | 0.00 | 0.00 | 96 | 1019.7 |
| 20260906072634 | 69 | 146 | 3.5 | 4.3 | 0.00 | 0.00 | 0.00 | 96 | 1019.9 |
| 20260906072130 | 69 | 141 | 2.6 | 3.5 | 0.00 | 0.00 | 0.00 | 96 | 1019.8 |
| 20260906071626 | 69 | 151 | 2.6 | 3.5 | 0.00 | 0.00 | 0.00 | 95 | 1019.7 |
| 20260906071121 | 69 | 155 | 3.5 | 5.2 | 0.00 | 0.00 | 0.00 | 95 | 1019.7 |
| 20260906070617 | 69 | 166 | 2.6 | 3.5 | 0.00 | 0.00 | 0.00 | 95 | 1019.9 |
| 20260906070113 | 69 | 149 | 2.6 | 2.6 | 0.00 | 0.00 | 0.00 | 94 | 1020.1 |
| 20260906065612 | 69 | 185 | 1.7 | 2.6 | 0.00 | 0.00 | 0.00 | 94 | 1020.0 |
| 20260906065108 | 69 | 129 | 2.6 | 3.5 | 0.00 | 0.00 | 0.00 | 94 | 1020.0 |
| 20260906064603 | 69 | 115 | 0.0 | 2.6 | 0.00 | 0.00 | 0.00 | 94 | 1020.0 |
| 20260906064058 | 69 | 124 | 2.6 | 2.6 | 0.00 | 0.00 | 0.00 | 95 | 1020.2 |
| 20260906063553 | 69 | 83 | 1.7 | 1.7 | 0.00 | 0.00 | 0.00 | 95 | 1020.1 |
| 20260906063049 | 69 | 94 | 0.0 | 1.7 | 0.00 | 0.00 | 0.00 | 95 | 1020.1 |
| 20260906062545 | 69 | 89 | 0.9 | 2.6 | 0.00 | 0.00 | 0.00 | 95 | 1020.0 |
| 20260906062038 | 0 | 136 | 2.6 | 3.5 | 0.00 | 0.00 | 0.00 | 95 | 1020.0 |
| 20260906061535 | 69 | 115 | 1.7 | 3.5 | 0.00 | 0.00 | 0.00 | 94 | 1020.0 |
| 20260906061034 | 0 | 137 | 0.9 | 2.6 | 0.00 | 0.00 | 0.00 | 94 | 1020.1 |
| 20260906060531 | 0 | 143 | 1.7 | 2.6 | 0.00 | 0.00 | 0.00 | 93 | 1020.0 |
| 20260906060028 | 0 | 147 | 0.0 | 2.6 | 0.00 | 0.00 | 0.00 | 93 | 1020.2 |
| 20260906055523 | 70 | 168 | 1.7 | 2.6 | 0.00 | 0.00 | 0.00 | 93 | 1020.3 |
| 20260906055018 | 0 | 144 | 1.7 | 1.7 | 0.00 | 0.00 | 0.00 | 93 | 1020.1 |
| 20260906054518 | 0 | 160 | 1.7 | 2.6 | 0.00 | 0.00 | 0.00 | 93 | 1020.2 |
| 20260906054014 | 70 | 125 | 2.6 | 2.6 | 0.00 | 0.00 | 0.00 | 92 | 1020.2 |
| 20260906053510 | 71 | 127 | 2.6 | 2.6 | 0.00 | 0.00 | 0.00 | 92 | 1020.3 |
| 20260906053005 | 71 | 155 | 2.6 | 2.6 | 0.00 | 0.00 | 0.00 | 92 | 1020.2 |
| 20260906052501 | 71 | 179 | 1.7 | 2.6 | 0.00 | 0.00 | 0.00 | 92 | 1020.0 |
| 20260906051958 | 70 | 160 | 2.6 | 2.6 | 0.00 | 0.00 | 0.00 | 92 | 1020.0 |
| 20260906051453 | 71 | 131 | 0.9 | 2.6 | 0.00 | 0.00 | 0.00 | 92 | 1020.1 |
| 20260906050949 | 71 | 151 | 2.6 | 2.6 | 0.00 | 0.00 | 0.00 | 92 | 1020.1 |
| 20260906050448 | 0 | 159 | 1.7 | 2.6 | 0.00 | 0.00 | 0.00 | 91 | 1020.1 |
| 20260906045947 | 0 | 158 | 4.3 | 8.7 | 0.00 | 0.00 | 0.00 | 91 | 1020.1 |
| 20260906045446 | 0 | 160 | 4.3 | 4.3 | 0.00 | 0.00 | 0.00 | 91 | 1019.9 |
| 20260906044943 | 71 | 200 | 0.0 | 4.3 | 0.00 | 0.00 | 0.00 | 91 | 1020.0 |
| 20260906044438 | 71 | 166 | 2.6 | 3.5 | 0.00 | 0.00 | 0.00 | 91 | 1019.8 |
| 20260906043933 | 71 | 174 | 0.9 | 1.7 | 0.00 | 0.00 | 0.00 | 91 | 1019.7 |
| 20260906043429 | 71 | 186 | 0.9 | 1.7 | 0.00 | 0.00 | 0.00 | 91 | 1019.8 |
| 20260906042925 | 70 | 177 | 0.9 | 2.6 | 0.00 | 0.00 | 0.00 | 91 | 1019.6 |
| 20260906042424 | 70 | 166 | 1.7 | 2.6 | 0.00 | 0.00 | 0.00 | 92 | 1019.5 |
| 20260906041919 | 70 | 163 | 3.5 | 4.3 | 0.00 | 0.00 | 0.00 | 92 | 1019.9 |
| 20260906041415 | 71 | 170 | 2.6 | 3.5 | 0.00 | 0.00 | 0.00 | 91 | 1019.5 |
| 20260906040914 | 71 | 157 | 3.5 | 3.5 | 0.00 | 0.00 | 0.00 | 91 | 1019.7 |
| 20260906040410 | 71 | 167 | 1.7 | 4.3 | 0.00 | 0.00 | 0.00 | 91 | 1019.8 |
| 20260906035905 | 70 | 167 | 3.5 | 4.3 | 0.00 | 0.00 | 0.00 | 92 | 1019.7 |
| 20260906035401 | 70 | 163 | 2.6 | 4.3 | 0.00 | 0.00 | 0.00 | 92 | 1019.4 |
| 20260906034855 | 71 | 159 | 3.5 | 5.2 | 0.00 | 0.00 | 0.00 | 92 | 1019.2 |
| 20260906034350 | 71 | 186 | 1.7 | 5.2 | 0.00 | 0.00 | 0.00 | 91 | 1019.3 |
| 20260906033846 | 71 | 162 | 2.6 | 4.3 | 0.00 | 0.00 | 0.00 | 92 | 1019.5 |
| 20260906033345 | 71 | 161 | 3.5 | 3.5 | 0.00 | 0.00 | 0.00 | 91 | 1019.3 |
| 20260906032842 | 71 | 177 | 1.7 | 2.6 | 0.00 | 0.00 | 0.00 | 91 | 1019.6 |
| 20260906032337 | 72 | 163 | 1.7 | 1.7 | 0.00 | 0.00 | 0.00 | 91 | 1019.5 |
| 20260906031832 | 72 | 185 | 0.0 | 1.7 | 0.00 | 0.00 | 0.00 | 90 | 1019.6 |
| 20260906031328 | 72 | 229 | 0.0 | 0.9 | 0.00 | 0.00 | 0.00 | 90 | 1019.4 |
| 20260906030827 | 72 | 195 | 0.9 | 1.7 | 0.00 | 0.00 | 0.00 | 90 | 1019.4 |
| 20260906030323 | 72 | 200 | 0.0 | 0.9 | 0.00 | 0.00 | 0.00 | 89 | 1019.2 |
| 20260906025817 | 72 | 186 | 0.9 | 0.9 | 0.00 | 0.00 | 0.00 | 89 | 1019.6 |
| 20260906025311 | 72 | 160 | 1.7 | 1.7 | 0.00 | 0.00 | 0.00 | 89 | 1019.2 |
| 20260906024810 | 72 | 119 | 0.0 | 0.0 | 0.00 | 0.00 | 0.00 | 89 | 1019.1 |
| 20260906024309 | 72 | 134 | 0.0 | 0.9 | 0.00 | 0.00 | 0.00 | 89 | 1019.1 |
| 20260906023805 | 73 | 148 | 1.7 | 2.6 | 0.00 | 0.00 | 0.00 | 89 | 1018.9 |
| 20260906023300 | 73 | 182 | 0.9 | 2.6 | 0.00 | 0.00 | 0.00 | 89 | 1018.8 |
| 20260906022756 | 72 | 146 | 0.0 | 1.7 | 0.00 | 0.00 | 0.00 | 89 | 1018.7 |
| 20260906022251 | 73 | 141 | 1.7 | 1.7 | 0.00 | 0.00 | 0.00 | 88 | 1018.6 |
| 20260906021747 | 73 | 146 | 0.9 | 2.6 | 0.00 | 0.00 | 0.00 | 88 | 1018.4 |
| 20260906021246 | 73 | 187 | 2.6 | 2.6 | 0.00 | 0.00 | 0.00 | 87 | 1018.4 |
| 20260906020741 | 74 | 179 | 1.7 | 1.7 | 0.00 | 0.00 | 0.00 | 87 | 1018.4 |
| 20260906020241 | 74 | 160 | 1.7 | 2.6 | 0.00 | 0.00 | 0.00 | 86 | 1018.3 |
| 20260906015735 | 74 | 176 | 1.7 | 3.5 | 0.00 | 0.00 | 0.00 | 86 | 1018.3 |
| 20260906015234 | 74 | 200 | 0.9 | 1.7 | 0.00 | 0.00 | 0.00 | 86 | 1018.1 |
| 20260906014729 | 74 | 215 | 1.7 | 2.6 | 0.00 | 0.00 | 0.00 | 85 | 1017.7 |
| 20260906014224 | 75 | 193 | 0.9 | 2.6 | 0.00 | 0.00 | 0.00 | 84 | 1017.6 |
| 20260906013721 | 75 | 190 | 1.7 | 2.6 | 0.00 | 0.00 | 0.00 | 84 | 1017.5 |
| 20260906013220 | 75 | 172 | 2.6 | 4.3 | 0.00 | 0.00 | 0.00 | 84 | 1017.3 |
| 20260906012715 | 76 | 177 | 2.6 | 4.3 | 0.00 | 0.00 | 0.00 | 83 | 1017.4 |
| 20260906012210 | 76 | 145 | 1.7 | 4.3 | 0.00 | 0.00 | 0.00 | 83 | 1017.4 |
| 20260906011705 | 76 | 104 | 2.6 | 7.8 | 0.00 | 0.00 | 0.00 | 82 | 1017.4 |
| 20260906011159 | 76 | 154 | 3.5 | 6.1 | 0.00 | 0.00 | 0.00 | 82 | 1017.3 |
| 20260906010655 | 76 | 135 | 4.3 | 5.2 | 0.00 | 0.00 | 0.00 | 81 | 1017.4 |
| 20260906010152 | 77 | 139 | 3.5 | 4.3 | 0.00 | 0.00 | 0.00 | 80 | 1017.3 |
| 20260906005651 | 77 | 155 | 1.7 | 4.3 | 0.00 | 0.00 | 0.00 | 80 | 1017.3 |
| 20260906005150 | 77 | 110 | 1.7 | 5.2 | 0.00 | 0.00 | 0.00 | 79 | 1017.2 |
| 20260906004649 | 77 | 108 | 4.3 | 4.3 | 0.00 | 0.00 | 0.00 | 79 | 1017.1 |
| 20260906004144 | 77 | 130 | 3.5 | 5.2 | 0.00 | 0.00 | 0.00 | 79 | 1017.3 |
| 20260906003640 | 78 | 129 | 7.0 | 8.7 | 0.00 | 0.00 | 0.00 | 78 | 1017.2 |
| 20260906003135 | 78 | 160 | 2.6 | 5.2 | 0.00 | 0.00 | 0.00 | 78 | 1017.1 |
| 20260906002630 | 78 | 53 | 0.0 | 7.8 | 0.00 | 0.00 | 0.00 | 77 | 1017.1 |
| 20260906002125 | 78 | 131 | 3.5 | 7.0 | 0.00 | 0.00 | 0.00 | 77 | 1017.1 |
| 20260906001621 | 78 | 130 | 5.2 | 7.8 | 0.00 | 0.00 | 0.00 | 77 | 1017.1 |
| 20260906001120 | 79 | 131 | 5.2 | 7.8 | 0.00 | 0.00 | 0.00 | 76 | 1017.2 |
| 20260906000616 | 79 | 35 | 1.7 | 9.6 | 0.00 | 0.00 | 0.00 | 75 | 1017.2 |
| 20260906000111 | 79 | 110 | 6.1 | 10.4 | 0.00 | 0.00 | 0.00 | 75 | 1017.0 |
| 20260905235610 | 80 | 133 | 3.5 | 9.6 | 0.00 | 0.00 | 0.00 | 75 | 1017.1 |
| 20260905235105 | 80 | 123 | 3.5 | 8.7 | 0.00 | 0.00 | 0.00 | 75 | 1017.2 |
| 20260905234601 | 80 | 127 | 5.2 | 9.6 | 0.00 | 0.00 | 0.00 | 74 | 1017.2 |
| 20260905234056 | 80 | 129 | 4.3 | 7.8 | 0.00 | 0.00 | 0.00 | 74 | 1017.1 |
| 20260905233555 | 81 | 126 | 3.5 | 8.7 | 0.00 | 0.00 | 0.00 | 73 | 1017.4 |
| 20260905233050 | 81 | 150 | 2.6 | 8.7 | 0.00 | 0.00 | 0.00 | 73 | 1017.2 |
| 20260905232546 | 82 | 49 | 2.6 | 7.8 | 0.00 | 0.00 | 0.00 | 73 | 1017.1 |
| 20260905232042 | 82 | 127 | 7.0 | 7.0 | 0.00 | 0.00 | 0.00 | 71 | 1017.1 |
| 20260905231536 | 82 | 128 | 4.3 | 5.2 | 0.00 | 0.00 | 0.00 | 71 | 1017.1 |
| 20260905231033 | 82 | 110 | 4.3 | 7.8 | 0.00 | 0.00 | 0.00 | 71 | 1017.3 |
| 20260905230532 | 82 | 80 | 0.9 | 8.7 | 0.00 | 0.00 | 0.00 | 70 | 1016.9 |
| 20260905230031 | 82 | 40 | 5.2 | 7.8 | 0.00 | 0.00 | 0.00 | 69 | 1017.1 |
| 20260905225525 | 82 | 34 | 2.6 | 4.3 | 0.00 | 0.00 | 0.00 | 69 | 1017.2 |
| 20260905225021 | 82 | 61 | 7.0 | 9.6 | 0.00 | 0.00 | 0.00 | 70 | 1017.3 |
| 20260905224515 | 83 | 101 | 5.2 | 7.8 | 0.00 | 0.00 | 0.00 | 69 | 1017.0 |
| 20260905224014 | 82 | 136 | 6.1 | 7.0 | 0.00 | 0.00 | 0.00 | 69 | 1017.1 |
| 20260905223513 | 82 | 53 | 3.5 | 7.8 | 0.00 | 0.00 | 0.00 | 67 | 1017.5 |
| 20260905223008 | 83 | 63 | 3.5 | 6.1 | 0.00 | 0.00 | 0.00 | 67 | 1017.1 |
| 20260905222508 | 83 | 43 | 0.0 | 5.2 | 0.00 | 0.00 | 0.00 | 69 | 1017.4 |
| 20260905222003 | 83 | 124 | 2.6 | 5.2 | 0.00 | 0.00 | 0.00 | 69 | 1017.6 |
| 20260905221500 | 82 | 132 | 3.5 | 5.2 | 0.00 | 0.00 | 0.00 | 69 | 1017.4 |
| 20260905220955 | 83 | 103 | 0.9 | 4.3 | 0.00 | 0.00 | 0.00 | 69 | 1017.6 |
| 20260905220451 | 82 | 132 | 1.7 | 3.5 | 0.00 | 0.00 | 0.00 | 69 | 1017.6 |
| 20260905215950 | 82 | 240 | 1.7 | 3.5 | 0.00 | 0.00 | 0.00 | 74 | 1017.7 |
| 20260905215446 | 81 | 256 | 3.5 | 4.3 | 0.00 | 0.00 | 0.00 | 75 | 1017.5 |
| 20260905214942 | 82 | 271 | 1.7 | 3.5 | 0.00 | 0.00 | 0.00 | 75 | 1017.7 |
| 20260905214438 | 82 | 141 | 1.7 | 3.5 | 0.00 | 0.00 | 0.00 | 74 | 1017.7 |
| 20260905213937 | 81 | 125 | 2.6 | 3.5 | 0.00 | 0.00 | 0.00 | 73 | 1017.7 |
| 20260905213434 | 84 | 214 | 2.6 | 4.3 | 0.00 | 0.00 | 0.00 | 71 | 1017.7 |
| 20260905212929 | 84 | 207 | 0.9 | 3.5 | 0.00 | 0.00 | 0.00 | 71 | 1018.0 |
| 20260905212424 | 83 | 275 | 2.6 | 3.5 | 0.00 | 0.00 | 0.00 | 70 | 1018.1 |
| 20260905211923 | 83 | 359 | 0.0 | 4.3 | 0.00 | 0.00 | 0.00 | 70 | 1018.2 |
| 20260905211418 | 82 | 335 | 0.0 | 2.6 | 0.00 | 0.00 | 0.00 | 71 | 1017.9 |
| 20260905210909 | 83 | 324 | 2.6 | 4.3 | 0.00 | 0.00 | 0.00 | 71 | 1018.1 |
| 20260905210409 | 83 | 238 | 3.5 | 4.3 | 0.00 | 0.00 | 0.00 | 71 | 1018.1 |
| 20260905205908 | 83 | 290 | 0.0 | 1.7 | 0.00 | 0.00 | 0.00 | 72 | 1018.1 |
| 20260905205403 | 82 | 219 | 2.6 | 4.3 | 0.00 | 0.00 | 0.00 | 73 | 1018.3 |
| 20260905204902 | 82 | 277 | 3.5 | 4.3 | 0.00 | 0.00 | 0.00 | 74 | 1018.2 |
| 20260905204358 | 81 | 264 | 2.6 | 5.2 | 0.00 | 0.00 | 0.00 | 75 | 1018.2 |
| 20260905203857 | 80 | 6 | 1.7 | 2.6 | 0.00 | 0.00 | 0.00 | 76 | 1018.2 |
| 20260905203353 | 81 | 285 | 1.7 | 4.3 | 0.00 | 0.00 | 0.00 | 75 | 1018.3 |
| 20260905202848 | 81 | 290 | 0.0 | 1.7 | 0.00 | 0.00 | 0.00 | 74 | 1018.5 |
| 20260905202343 | 81 | 236 | 0.0 | 2.6 | 0.00 | 0.00 | 0.00 | 75 | 1018.3 |
| 20260905201839 | 82 | 237 | 1.7 | 2.6 | 0.00 | 0.00 | 0.00 | 74 | 1018.4 |
| 20260905201334 | 80 | 299 | 2.6 | 4.3 | 0.00 | 0.00 | 0.00 | 77 | 1018.6 |
| 20260905200834 | 79 | 274 | 6.1 | 7.8 | 0.00 | 0.00 | 0.00 | 79 | 1018.5 |
| 20260905200331 | 80 | 275 | 4.3 | 7.8 | 0.00 | 0.00 | 0.00 | 77 | 1018.5 |
| 20260905195828 | 81 | 247 | 5.2 | 6.1 | 0.00 | 0.00 | 0.00 | 75 | 1018.6 |
| 20260905195323 | 80 | 228 | 1.7 | 3.5 | 0.00 | 0.00 | 0.00 | 75 | 1018.7 |
| 20260905194819 | 80 | 313 | 2.6 | 5.2 | 0.00 | 0.00 | 0.00 | 75 | 1018.4 |
| 20260905194319 | 80 | 301 | 4.3 | 6.1 | 0.00 | 0.00 | 0.00 | 75 | 1018.5 |
| 20260905193818 | 81 | 295 | 3.5 | 5.2 | 0.00 | 0.00 | 0.00 | 75 | 1018.5 |
| 20260905193313 | 81 | 242 | 2.6 | 6.1 | 0.00 | 0.00 | 0.00 | 76 | 1018.3 |
| 20260905192808 | 0 | 110 | 1.7 | 1.7 | 0.00 | 0.00 | 0.00 | 77 | 1018.5 |
| 20260905192306 | 0 | 260 | 4.3 | 6.1 | 0.00 | 0.00 | 0.00 | 77 | 1018.6 |
| 20260905191803 | 0 | 295 | 1.7 | 3.5 | 0.00 | 0.00 | 0.00 | 77 | 1018.5 |
| 20260905191302 | 0 | 155 | 0.0 | 1.7 | 0.00 | 0.00 | 0.00 | 77 | 1018.5 |
| 20260905190801 | 78 | 171 | 1.7 | 3.5 | 0.00 | 0.00 | 0.00 | 78 | 1018.6 |
| 20260905190301 | 79 | 249 | 1.7 | 3.5 | 0.00 | 0.00 | 0.00 | 78 | 1018.5 |
| 20260905185759 | 79 | 128 | 2.6 | 3.5 | 0.00 | 0.00 | 0.00 | 78 | 1018.5 |
| 20260905185249 | 79 | 155 | 2.6 | 2.6 | 0.00 | 0.00 | 0.00 | 78 | 1018.3 |
| 20260905184748 | 78 | 123 | 0.9 | 6.1 | 0.00 | 0.00 | 0.00 | 79 | 1018.6 |
| 20260905184247 | 79 | 20 | 0.9 | 3.5 | 0.00 | 0.00 | 0.00 | 77 | 1018.7 |
| 20260905183741 | 80 | 223 | 0.0 | 3.5 | 0.00 | 0.00 | 0.00 | 75 | 1018.7 |
| 20260905183237 | 0 | 278 | 1.7 | 1.7 | 0.00 | 0.00 | 0.00 | 78 | 1018.5 |
| 20260905182736 | 0 | 26 | 0.9 | 4.3 | 0.00 | 0.00 | 0.00 | 78 | 1018.6 |
| 20260905182236 | 0 | 43 | 0.0 | 1.7 | 0.00 | 0.00 | 0.00 | 78 | 1018.4 |
| 20260905181732 | 0 | 144 | 2.6 | 5.2 | 0.00 | 0.00 | 0.00 | 78 | 1019.0 |
| 20260905181230 | 0 | 322 | 2.6 | 2.6 | 0.00 | 0.00 | 0.00 | 80 | 1018.8 |
| 20260905180725 | 0 | 143 | 1.7 | 2.6 | 0.00 | 0.00 | 0.00 | 80 | 1018.8 |
| 20260905180221 | 0 | 20 | 0.0 | 4.3 | 0.00 | 0.00 | 0.00 | 80 | 1019.1 |
| 20260905175720 | 0 | 88 | 1.7 | 5.2 | 0.00 | 0.00 | 0.00 | 82 | 1018.8 |